Temperature
12 12 12 12 13 13 13 13 13 13 14 15 15 16 16 16 16 16 17 17 17 17 17 17 16 16 16 16 16 16 16 16 16 16 16 15 15 15
12 12 12 12 12 13 13 13 13 13 13 14 15 15 15 16 16 16 16 16 16 17 17 17 16 16 16 16 16 16 16 16 16 15 15 15 15 15
12 12 12 12 12 12 12 13 13 13 13 14 14 14 15 15 15 16 16 16 16 16 16 16 16 16 16 16 16 16 16 15 15 15 15 15 15 15
11 12 12 12 12 12 12 12 13 13 13 13 14 14 14 15 15 15 15 16 16 16 16 16 16 16 16 16 16 16 16 15 15 15 15 15 15 15
11 12 12 12 12 12 12 12 12 12 12 13 13 14 14 14 14 15 15 15 15 16 16 16 16 16 16 16 16 16 16 16 15 15 15 15 15 15
11 11 11 11 12 12 12 12 12 12 12 12 12 13 13 14 14 14 15 15 15 15 15 16 16 16 16 16 16 16 15 15 15 15 15 15 15 15
11 11 11 11 11 12 12 12 12 12 12 12 12 12 13 13 13 14 14 14 15 15 15 15 15 15 15 15 15 15 15 15 15 15 15 15 15 14
11 11 11 11 11 11 11 11 12 12 12 12 12 12 12 13 13 13 13 13 14 14 14 15 15 15 15 15 15 15 15 15 15 15 15 15 15 14
11 11 11 11 11 11 11 11 11 11 12 12 12 12 12 12 12 13 13 13 13 14 14 14 14 15 15 15 15 15 15 15 15 15 15 15 15 14
12 11 11 11 11 11 11 12 12 12 12 12 12 12 12 12 12 12 12 12 13 13 13 13 14 14 14 14 14 14 14 14 14 14 14 14 14 14
12 11 11 12 11 11 11 12 12 12 12 11 12 12 12 12 12 12 12 12 12 13 13 13 13 13 14 14 14 14 14 14 14 14 14 14 14 14
12 12 11 11 11 11 11 11 12 12 12 12 12 12 12 12 12 12 12 12 12 12 13 12 13 12 13 13 14 14 14 13 13 13 14 14 14 13
12 12 11 11 11 11 11 11 11 11 11 12 12 12 12 12 12 12 12 11 11 12 12 12 12 12 12 12 13 13 13 13 13 13 13 13 13 13
12 11 11 11 11 11 11 11 11 11 11 11 11 12 12 12 12 12 11 11 11 12 12 12 12 12 12 12 12 13 13 13 13 13 13 13 13 13
11 11 11 11 11 11 11 11 11 11 11 11 11 11 11 11 11 11 11 11 11 11 11 11 11 12 12 12 12 12 12 12 12 12 12 12 12 12
11 11 11 11 11 11 11 11 11 10 10 10 11 11 11 11 11 11 11 11 11 11 11 11 11 11 11 11 11 12 12 12 12 12 12 12 12 12
10 11 11 11 11 11 11 11 10 10 10 10 10 10 11 11 11 11 11 11 11 11 11 11 11 11 11 11 11 11 11 11 12 12 11 11 11 11
10 10 10 10 10 10 10 10 10 10 10 10 10 10 10 10 10 10 10 10 10 11 11 11 11 11 11 11 11 11 11 11 11 11 11 11 11 11
9 9 9 8 8 8 9 9 9 9 9 9 9 9 9 9 10 10 10 10 10 10 10 11 11 10 10 10 11 11 11 11 11 11 11 11 11 11
8 8 8 7 7 7 7 8 8 8 8 8 8 8 8 9 9 9 9 9 10 10 10 10 10 10 10 10 11 11 11 11 11 10 11 10 10 10
7 6 6 6 6 6 6 6 7 7 7 7 7 7 8 8 8 8 8 9 9 9 9 10 10 10 10 10 10 10 11 11 10 10 10 10 10 10
5 5 5 5 5 5 5 5 6 6 6 6 6 6 6 6 7 7 7 8 8 8 9 9 10 10 10 10 10 10 10 10 10 10 10 10 10 10
4 4 4 4 4 4 4 4 5 5 5 5 5 5 5 5 6 6 6 7 7 7 8 8 9 9 9 9 10 10 10 10 10 10 10 10 10 10
Wind_Speed
3 3 2 2 3 3 3 3 3 2 3 3 2 2 3 4 7 9 10 13 16 19 20 21 22 23 23 23 22 22 21 21 20 19 18 17 16 15
2 2 2 2 3 3 3 3 4 3 3 3 3 2 2 3 6 8 9 11 14 16 19 20 21 22 22 23 22 22 21 21 20 20 20 19 17 16
2 2 3 3 3 2 2 3 4 4 5 3 2 2 3 4 3 5 7 8 9 14 16 18 20 21 21 22 22 22 22 21 21 21 21 20 19 18
4 3 4 3 3 3 2 3 3 4 4 5 3 3 4 4 4 4 4 6 7 11 14 16 17 19 20 21 22 22 22 22 22 22 22 22 21 20
4 4 4 3 4 3 3 3 3 3 3 4 4 3 3 2 2 3 4 3 5 8 12 15 16 18 19 20 21 22 22 23 23 23 23 22 22 21
4 4 4 4 5 4 4 4 3 3 3 4 4 3 3 2 2 3 3 3 4 5 7 9 12 15 17 19 20 21 22 22 23 23 23 23 22 22
4 4 4 5 6 5 4 3 4 3 3 4 4 3 3 3 3 3 4 3 4 4 4 5 6 7 10 15 18 20 21 22 23 23 23 23 23 23
4 4 5 5 5 6 6 5 4 4 5 4 4 5 5 4 4 4 4 3 3 3 4 4 5 6 6 9 14 18 20 21 22 23 23 23 23 23
4 4 4 4 5 4 5 5 5 6 7 5 6 6 5 5 4 5 6 5 5 3 3 4 4 6 5 9 15 18 19 20 21 22 23 23 23 24
4 4 4 5 4 4 4 4 4 4 5 5 6 6 6 5 6 6 5 4 3 3 4 4 4 5 5 6 14 17 19 20 21 22 23 23 23 24
4 4 4 5 7 6 4 4 5 5 5 7 7 8 9 9 6 4 4 4 5 4 4 4 3 3 3 5 8 15 17 19 20 21 22 22 23 22
5 4 5 6 8 7 4 4 6 6 5 5 5 6 6 7 8 7 6 6 4 4 5 5 3 2 3 3 4 7 10 14 18 19 20 21 21 16
4 5 5 8 9 8 6 5 7 7 5 5 5 5 4 4 5 5 6 7 7 6 4 5 4 4 4 2 3 4 6 6 8 11 17 20 21 18
4 4 5 9 10 9 6 6 8 6 4 4 4 5 4 4 4 5 6 7 7 8 6 6 4 5 5 4 3 3 5 6 7 7 8 13 17 21
3 5 7 8 8 6 7 7 6 3 3 3 4 5 4 5 4 4 5 6 7 7 7 7 7 6 6 6 4 4 4 5 7 7 7 8 8 9
4 6 7 8 6 6 6 5 4 3 3 4 5 5 4 4 4 4 4 5 5 5 6 9 9 8 7 7 6 6 6 5 6 7 7 7 7 9
4 4 6 6 7 7 6 6 5 5 4 4 4 5 5 5 5 4 4 4 5 6 5 4 6 7 8 7 7 8 7 7 6 7 7 8 8 9
6 5 6 6 6 6 7 6 6 6 6 6 5 5 5 6 6 5 4 5 6 6 6 5 4 4 4 6 10 9 8 7 6 7 7 8 9 8
7 5 5 6 6 6 6 6 6 6 6 6 6 7 6 6 6 6 5 6 6 7 6 5 5 6 8 8 6 11 9 7 7 7 8 7 8 8
5 5 5 5 5 6 6 6 6 7 7 6 7 7 7 7 7 7 6 7 7 7 6 6 7 8 10 8 5 5 11 9 8 8 7 5 3 3
4 4 4 4 4 5 5 5 6 6 7 7 7 7 7 8 8 8 8 9 8 7 8 7 8 9 6 4 5 5 6 11 10 7 7 6 5 5
3 3 4 4 4 4 5 5 5 5 6 6 6 7 7 7 8 9 9 9 8 8 9 7 5 5 6 8 9 7 6 5 7 9 10 9 7 8
4 4 4 4 4 4 5 5 6 6 6 6 6 7 7 8 8 8 9 9 9 10 9 8 6 5 7 8 9 8 8 7 5 6 6 7 9 7
Wind_Direction
281 270 261 262 249 237 224 204 201 225 249 251 248 246 230 221 219 214 219 222 222 222 222 222 220 220 218 217 218 220 220 216 213 209 207 209 209 210
284 283 282 272 268 250 232 220 213 214 238 253 241 251 247 242 225 220 223 225 225 224 223 221 221 220 219 216 216 216 217 216 214 210 208 209 210 210
311 292 286 279 270 263 241 225 218 212 238 260 248 252 239 242 238 226 226 224 227 225 224 223 221 219 217 216 214 214 214 213 212 210 209 209 210 211
304 297 291 290 282 274 253 240 231 221 225 249 250 244 244 239 235 233 229 228 226 228 225 224 220 217 216 215 214 212 211 211 211 211 210 211 212 212
286 284 285 286 279 272 258 244 237 233 224 237 250 244 250 246 245 246 238 234 233 233 228 226 222 218 215 215 214 212 211 211 211 210 210 211 211 211
281 277 279 271 266 266 260 247 235 235 235 240 247 247 248 241 228 239 249 235 237 234 229 226 224 221 219 216 215 214 212 211 211 210 210 209 208 208
298 286 281 280 277 269 257 240 223 227 234 240 244 245 242 228 229 225 241 249 244 223 225 226 217 220 218 219 217 216 213 211 210 210 209 208 207 207
301 302 296 294 306 310 301 279 245 229 230 234 241 244 245 236 231 230 235 239 251 215 209 229 207 223 218 213 216 214 213 212 210 210 209 208 207 207
286 297 309 310 318 311 310 304 288 272 251 238 242 247 245 234 227 237 234 232 237 218 207 238 215 229 224 220 215 214 214 214 212 210 209 208 207 206
281 274 281 297 303 301 300 302 291 283 269 252 241 247 248 244 234 237 244 244 253 234 202 233 224 229 224 219 218 215 215 215 215 214 212 209 207 205
297 289 287 289 301 313 302 294 294 291 278 260 257 257 259 257 243 234 233 237 252 239 203 214 224 232 232 232 223 218 218 218 216 215 213 209 205 203
308 303 300 300 305 312 293 281 287 289 294 297 289 282 267 259 247 231 228 235 243 241 206 196 203 198 243 231 221 216 218 222 218 216 212 207 202 202
303 307 307 316 314 311 299 269 274 288 288 283 286 284 276 262 252 237 229 229 234 240 209 191 203 200 221 242 231 219 216 219 217 218 214 207 202 200
286 297 306 319 322 318 311 295 295 298 288 287 287 285 279 272 264 253 242 236 235 240 222 203 215 213 219 237 244 227 216 212 212 216 211 205 205 205
299 314 328 337 340 339 340 337 331 313 295 290 289 288 276 272 275 272 257 245 242 239 227 220 221 222 225 234 231 225 227 222 212 212 208 204 203 200
356 359 5 8 7 360 358 357 350 328 314 296 291 288 287 282 276 270 266 261 255 251 230 222 221 220 231 235 230 231 222 217 209 209 207 207 205 203
16 25 24 18 16 11 5 358 351 348 336 319 306 303 300 292 284 275 262 260 255 255 251 233 224 227 230 226 234 231 224 225 219 205 204 212 212 208
49 37 25 18 13 5 359 355 354 351 342 333 323 313 307 306 301 288 268 264 264 260 254 242 226 233 240 241 223 229 227 225 219 209 207 214 219 211
50 35 21 10 3 358 355 353 348 342 340 339 337 332 323 313 307 304 294 280 271 266 259 243 229 233 246 253 229 211 218 219 211 212 214 218 224 212
35 26 12 2 357 355 353 350 345 344 346 343 341 339 336 327 319 312 303 293 285 278 268 250 237 236 242 250 241 221 209 211 212 217 215 212 220 197
13 4 355 350 346 345 344 343 342 341 340 342 341 338 335 331 326 319 311 303 294 284 275 267 257 243 243 232 238 234 217 210 209 212 201 197 199 196
349 343 337 334 331 331 329 329 332 332 334 334 334 334 332 327 322 320 317 311 303 295 286 281 272 250 234 236 244 243 232 215 217 216 206 195 190 199
332 328 324 324 321 318 318 320 321 321 321 323 324 323 324 324 319 314 313 311 308 304 300 292 278 261 253 245 244 241 230 219 207 207 220 218 219 225
Height
1480 1480 1480 1481 1481 1481 1482 1483 1485 1485 1485 1486 1488 1490 1492 1494 1496 1498 1501 1503 1506 1509 1512 1515 1517 1520 1523 1526 1528 1531 1533 1535 1537 1539 1541 1542 1543 1545
1478 1478 1478 1478 1478 1479 1479 1480 1481 1482 1482 1483 1485 1487 1488 1490 1492 1494 1496 1498 1501 1503 1506 1509 1512 1515 1518 1521 1523 1526 1528 1531 1533 1535 1537 1538 1540 1541
1476 1476 1476 1476 1476 1476 1477 1477 1478 1479 1479 1480 1481 1483 1484 1486 1488 1489 1491 1493 1495 1498 1501 1504 1506 1509 1512 1515 1518 1520 1523 1525 1528 1530 1532 1534 1535 1537
1474 1474 1474 1473 1473 1473 1474 1474 1475 1476 1477 1477 1478 1479 1480 1482 1483 1484 1486 1488 1490 1492 1495 1497 1500 1503 1506 1509 1512 1514 1517 1520 1522 1525 1527 1529 1531 1532
1472 1472 1471 1471 1471 1471 1471 1471 1472 1472 1473 1474 1474 1475 1476 1477 1478 1479 1481 1482 1484 1486 1488 1491 1494 1496 1499 1502 1505 1508 1511 1513 1516 1519 1521 1523 1525 1527
1471 1470 1469 1469 1469 1468 1468 1468 1469 1469 1470 1470 1470 1471 1472 1473 1474 1475 1476 1477 1479 1481 1483 1485 1487 1490 1492 1495 1498 1501 1504 1507 1509 1512 1515 1517 1519 1521
1469 1468 1467 1467 1466 1466 1466 1466 1466 1466 1466 1467 1467 1467 1468 1469 1470 1471 1471 1473 1474 1475 1477 1479 1481 1483 1485 1488 1490 1493 1496 1499 1502 1505 1507 1510 1512 1515
1468 1466 1466 1465 1464 1464 1463 1463 1463 1463 1463 1463 1463 1463 1464 1465 1466 1467 1467 1468 1468 1470 1471 1473 1475 1476 1478 1481 1483 1485 1488 1491 1494 1497 1500 1502 1505 1507
1466 1465 1464 1463 1462 1461 1461 1460 1460 1460 1460 1460 1459 1459 1460 1461 1462 1462 1463 1463 1463 1465 1467 1467 1468 1469 1472 1474 1476 1478 1480 1483 1486 1489 1491 1494 1497 1499
1465 1463 1462 1461 1460 1459 1458 1457 1457 1457 1456 1456 1456 1456 1456 1457 1457 1458 1458 1458 1459 1460 1461 1461 1462 1463 1465 1467 1469 1470 1472 1475 1477 1480 1483 1485 1488 1491
1464 1462 1461 1459 1458 1457 1456 1455 1454 1454 1453 1453 1452 1452 1452 1452 1453 1453 1453 1454 1453 1454 1456 1456 1456 1457 1458 1459 1461 1463 1464 1466 1469 1471 1474 1477 1480 1483
1462 1461 1459 1457 1456 1454 1453 1452 1450 1450 1449 1449 1448 1448 1448 1448 1448 1448 1448 1449 1449 1449 1450 1451 1451 1452 1452 1452 1454 1456 1457 1459 1461 1463 1466 1469 1471 1474
1460 1458 1457 1455 1453 1452 1450 1449 1448 1447 1446 1445 1444 1444 1444 1443 1443 1443 1443 1444 1444 1444 1445 1446 1446 1447 1447 1447 1447 1449 1450 1452 1454 1456 1458 1460 1463 1466
1457 1456 1454 1453 1451 1449 1448 1446 1445 1444 1443 1442 1441 1440 1440 1439 1439 1438 1438 1438 1438 1439 1440 1441 1441 1441 1442 1442 1442 1442 1444 1445 1447 1448 1450 1452 1454 1457
1455 1453 1452 1450 1448 1446 1445 1443 1442 1441 1440 1439 1438 1437 1436 1435 1434 1433 1433 1433 1432 1433 1434 1435 1435 1436 1436 1436 1436 1436 1437 1438 1439 1441 1442 1444 1445 1448
1452 1451 1449 1448 1446 1444 1443 1441 1440 1439 1437 1436 1435 1434 1432 1431 1430 1429 1428 1428 1427 1427 1428 1429 1430 1430 1430 1430 1430 1430 1431 1432 1432 1434 1435 1436 1438 1440
1450 1448 1447 1445 1444 1442 1441 1439 1438 1436 1435 1433 1432 1430 1429 1427 1426 1425 1424 1423 1422 1422 1422 1423 1423 1424 1424 1424 1424 1424 1424 1425 1426 1427 1428 1429 1431 1432
1448 1446 1444 1443 1441 1439 1438 1436 1435 1433 1432 1430 1428 1427 1425 1423 1422 1421 1420 1419 1417 1417 1417 1417 1417 1417 1417 1416 1417 1417 1417 1418 1419 1420 1421 1422 1423 1425
1446 1444 1443 1441 1439 1438 1436 1434 1433 1431 1429 1427 1425 1423 1421 1420 1418 1416 1415 1414 1413 1412 1411 1411 1411 1411 1410 1409 1409 1411 1411 1411 1412 1413 1414 1415 1416 1418
1445 1443 1442 1440 1438 1436 1434 1432 1430 1428 1426 1424 1422 1420 1418 1416 1414 1412 1411 1409 1408 1407 1406 1406 1406 1405 1404 1404 1403 1403 1404 1404 1405 1406 1407 1408 1410 1412
1443 1442 1440 1438 1436 1434 1432 1430 1428 1425 1423 1420 1418 1416 1414 1412 1410 1408 1407 1405 1403 1402 1400 1399 1399 1400 1399 1398 1397 1395 1397 1398 1398 1399 1400 1402 1403 1405
1441 1440 1438 1436 1434 1431 1429 1427 1424 1422 1419 1417 1414 1412 1410 1408 1406 1404 1402 1400 1398 1396 1394 1393 1393 1392 1391 1390 1389 1389 1390 1391 1391 1392 1394 1395 1395 1397
1439 1437 1435 1432 1430 1428 1425 1423 1420 1418 1415 1413 1410 1408 1406 1403 1401 1399 1397 1395 1393 1391 1389 1387 1386 1385 1384 1383 1382 1382 1383 1383 1384 1385 1386 1388 1390 1392